EW0811 Weather Reports


time (UTC)temp
F
wind
direction
speed
knots
gust
knots
rain 1hr
in
rain 24hr
in
rain mn
in
humidity
%
barometer
mb
20260509173216 67 203 7.8 10.4 0.00 0.00 0.00 63 1005.4
20260509172216 66 248 3.5 6.1 0.00 0.00 0.00 65 1005.5
20260509171216 67 203 1.7 5.2 0.00 0.00 0.00 64 1005.6
20260509170216 65 248 3.5 7.0 0.00 0.00 0.00 63 1005.5
20260509165216 64 248 3.5 7.0 0.00 0.00 0.00 65 1005.7
20260509164216 66 203 4.3 9.6 0.00 0.00 0.00 65 1005.8
20260509163239 64 203 3.5 6.1 0.00 0.00 0.00 71 1006.0
20260509162216 63 248 5.2 8.7 0.00 0.00 0.00 66 1006.0
20260509161236 64 225 3.5 5.2 0.00 0.00 0.00 66 1006.0
20260509160216 64 248 5.2 8.7 0.00 0.00 0.00 66 1005.9
20260509155238 64 203 4.3 5.2 0.00 0.00 0.00 69 1006.1
20260509154216 63 180 1.7 2.6 0.00 0.00 0.00 72 1006.2
20260509153217 64 158 2.6 4.3 0.00 0.00 0.00 72 1006.4
20260509152236 62 270 1.7 3.5 0.00 0.00 0.00 74 1006.5
20260509151216 62 158 3.5 5.2 0.00 0.00 0.00 75 1006.6
20260509150216 61 203 4.3 7.0 0.00 0.00 0.00 76 1006.5
20260509145216 61 203 5.2 7.0 0.00 0.00 0.00 72 1006.5
20260509144216 62 203 2.6 5.2 0.00 0.00 0.00 76 1006.6
20260509143216 60 158 2.6 3.5 0.00 0.00 0.00 78 1006.7
20260509142216 60 203 3.5 6.1 0.00 0.00 0.00 76 1006.7
20260509141217 60 158 1.7 3.5 0.00 0.00 0.00 80 1006.8
20260509140221 59 225 2.6 4.3 0.00 0.00 0.00 80 1006.9
20260509135236 58 180 1.7 2.6 0.00 0.00 0.00 81 1007.0
20260509134236 58 225 3.5 5.2 0.00 0.00 0.00 78 1007.1
20260509133216 58 248 1.7 2.6 0.00 0.00 0.00 82 1007.1
20260509132216 57 203 2.6 3.5 0.00 0.00 0.00 83 1007.2
20260509131216 57 158 2.6 3.5 0.00 0.00 0.00 84 1007.3
20260509130236 56 203 4.3 6.1 0.00 0.00 0.00 83 1007.2
20260509125216 55 158 3.5 5.2 0.00 0.01 0.00 86 1007.2
20260509124216 54 180 1.7 3.5 0.00 0.01 0.00 85 1007.3
20260509123216 53 203 1.7 1.7 0.00 0.01 0.00 86 1007.5
20260509122216 52 203 0.9 1.7 0.00 0.01 0.00 87 1007.5
20260509121216 52 180 0.9 1.7 0.00 0.01 0.00 87 1007.6
20260509120215 51 225 2.6 3.5 0.00 0.01 0.00 88 1007.6
20260509115215 50 180 2.6 5.2 0.00 0.07 0.00 90 1007.4
20260509114217 49 203 1.7 2.6 0.00 0.07 0.00 91 1007.6
20260509113223 47 158 2.6 3.5 0.00 0.07 0.00 94 1007.4
20260509112217 45 158 1.7 2.6 0.00 0.07 0.00 97 1007.5
20260509111215 43 158 1.7 2.6 0.00 0.07 0.00 97 1007.6
20260509110235 42 0.0 0.0 0.00 0.07 0.00 96 1007.6
20260509105237 41 0.0 0.0 0.00 0.07 0.00 95 1007.8
20260509104216 41 0.0 0.0 0.00 0.07 0.00 95 1007.8
20260509103215 40 0.0 0.9 0.00 0.07 0.00 95 1007.7
20260509102237 40 0.0 0.0 0.00 0.07 0.00 94 1007.7
20260509101215 40 0.0 0.0 0.00 0.07 0.00 94 1007.5
20260509100215 40 0.0 0.9 0.00 0.07 0.00 93 1007.5
20260509095215 40 0.0 0.0 0.00 0.07 0.00 92 1007.5
20260509094215 40 0.0 0.0 0.00 0.07 0.00 90 1007.6
20260509093237 40 0.0 0.0 0.00 0.07 0.00 90 1007.6
20260509092215 41 0.0 0.0 0.00 0.07 0.00 90 1007.5
20260509091215 40 135 1.7 2.6 0.00 0.07 0.00 90 1007.5
20260509090215 40 0.0 0.9 0.00 0.07 0.00 91 1007.6
20260509085215 39 0.0 0.9 0.00 0.07 0.00 92 1007.5
20260509084235 38 0.0 0.9 0.00 0.07 0.00 92 1007.6
20260509083215 38 158 0.9 1.7 0.00 0.07 0.00 92 1007.6
20260509082215 37 248 0.9 1.7 0.00 0.07 0.00 92 1007.6
20260509081235 37 248 0.9 1.7 0.00 0.07 0.00 92 1007.7
20260509080235 37 0.0 0.0 0.00 0.07 0.00 91 1007.8
20260509075215 37 0.0 0.9 0.00 0.07 0.00 90 1007.9
20260509074215 37 0.0 0.0 0.00 0.07 0.00 89 1008.0
20260509073217 38 0.0 0.0 0.00 0.07 0.00 88 1008.1
20260509072215 38 0.0 0.0 0.00 0.07 0.00 87 1008.1
20260509071215 39 0.0 0.9 0.00 0.07 0.00 85 1008.3
20260509070215 40 0.0 0.9 0.00 0.07 0.00 82 1008.3
20260509065215 42 0.0 0.0 0.00 0.07 0.00 79 1008.4
20260509064215 43 0.0 0.9 0.00 0.07 0.00 78 1008.5
20260509063215 44 248 0.9 1.7 0.00 0.07 0.00 72 1008.7
20260509062215 42 248 3.5 6.1 0.00 0.07 0.00 74 1008.8
20260509061215 42 248 1.7 2.6 0.00 0.07 0.00 80 1008.9
20260509060215 42 158 1.7 3.5 0.00 0.07 0.00 78 1009.0
20260509055215 42 158 1.7 2.6 0.00 0.07 0.00 75 1009.0
20260509054235 41 180 1.7 3.5 0.00 0.07 0.00 78 1009.2
20260509053215 41 225 0.9 1.7 0.00 0.07 0.00 82 1009.2
20260509052215 42 0.0 0.9 0.00 0.07 0.00 79 1009.3
20260509051217 42 225 0.9 1.7 0.00 0.07 0.00 78 1009.4
20260509050215 42 203 0.9 0.9 0.00 0.07 0.00 79 1009.5
20260509045215 42 203 0.9 1.7 0.00 0.07 0.00 78 1009.7
20260509044215 41 203 1.7 3.5 0.00 0.07 0.00 79 1009.7
20260509043237 40 203 0.9 2.6 0.00 0.07 0.00 80 1009.7
20260509042215 39 158 1.7 3.5 0.00 0.07 0.00 82 1009.8
20260509041215 39 158 1.7 3.5 0.00 0.07 0.00 85 1009.8
20260509040216 38 203 0.9 3.5 0.00 0.07 0.00 88 1009.8
20260509035217 38 203 0.9 0.9 0.00 0.07 0.07 89 1009.9
20260509034237 38 203 0.9 1.7 0.00 0.07 0.07 90 1010.0
20260509033217 38 0.0 0.0 0.00 0.07 0.07 90 1009.9
20260509032217 37 203 0.9 0.9 0.00 0.07 0.07 91 1010.0
20260509031217 38 0.0 0.9 0.00 0.07 0.07 91 1010.1
20260509030238 38 0.0 0.0 0.00 0.07 0.07 90 1010.2
20260509025217 38 0.0 0.0 0.00 0.10 0.07 91 1010.1
20260509024218 39 0.0 0.0 0.00 0.10 0.07 91 1010.3
20260509023238 39 0.0 0.0 0.00 0.10 0.07 90 1010.2
20260509022257 40 0.0 0.9 0.00 0.10 0.07 90 1010.0
20260509021238 40 0.0 0.0 0.00 0.10 0.07 89 1010.0
20260509020216 40 0.0 0.9 0.00 0.10 0.07 89 1010.0
20260509015217 41 0.0 0.0 0.00 0.11 0.07 87 1010.0
20260509014217 41 0.0 0.0 0.00 0.11 0.07 85 1010.0
20260509013217 42 0.0 0.0 0.00 0.11 0.07 85 1010.0
20260509012220 43 0.0 0.0 0.00 0.11 0.07 85 1010.0
20260509011237 44 0.0 0.0 0.00 0.11 0.07 83 1010.0
20260509010218 45 0.0 0.0 0.00 0.11 0.07 81 1010.0
20260509005217 46 203 0.9 0.9 0.00 0.20 0.07 79 1009.9
20260509004217 48 0.0 0.0 0.00 0.20 0.07 77 1009.9
20260509003217 49 0.0 0.0 0.00 0.20 0.07 71 1009.7
20260509002217 50 203 0.9 0.9 0.00 0.20 0.07 66 1009.6
20260509001217 52 0.0 0.0 0.00 0.20 0.07 63 1009.6
20260509000219 52 203 1.7 2.6 0.00 0.20 0.07 60 1009.5
20260508235217 53 203 0.9 0.9 0.00 0.20 0.07 59 1009.5
20260508234217 54 0.0 0.9 0.00 0.20 0.07 56 1009.5
20260508233216 55 225 0.9 2.6 0.00 0.20 0.07 55 1009.6
20260508232238 56 225 0.9 0.9 0.00 0.20 0.07 55 1009.5
20260508231218 56 270 1.7 3.5 0.00 0.20 0.07 53 1009.5
20260508230216 57 203 1.7 3.5 0.00 0.20 0.07 49 1009.5
20260508225216 57 203 1.7 2.6 0.00 0.20 0.07 52 1009.6
20260508224218 57 203 1.7 3.5 0.00 0.20 0.07 51 1009.6
20260508223216 58 248 1.7 2.6 0.00 0.20 0.07 54 1009.6
20260508222218 57 248 1.7 3.5 0.00 0.20 0.07 52 1009.6
20260508221216 59 225 1.7 3.5 0.00 0.20 0.07 52 1009.6
20260508220216 58 270 2.6 5.2 0.00 0.20 0.07 52 1009.7
20260508215216 59 270 2.6 4.3 0.00 0.20 0.07 48 1009.8
20260508214217 59 68 1.7 3.5 0.00 0.20 0.07 46 1009.8
20260508213257 58 225 3.5 7.0 0.00 0.20 0.07 53 1009.8
20260508212216 59 248 2.6 5.2 0.00 0.20 0.07 52 1009.7
20260508211216 60 203 4.3 6.1 0.00 0.20 0.07 46 1009.7
20260508210216 60 225 2.6 5.2 0.00 0.20 0.07 50 1009.8
20260508205216 58 270 1.7 3.5 0.00 0.20 0.07 51 1009.7
20260508204236 58 315 1.7 4.3 0.00 0.20 0.07 59 1009.8
20260508203218 58 338 0.9 2.6 0.00 0.20 0.07 60 1009.9
20260508202216 59 315 0.9 1.7 0.00 0.20 0.07 54 1010.0
20260508201216 59 248 0.9 1.7 0.00 0.20 0.07 44 1010.1
20260508200216 61 270 1.7 2.6 0.00 0.20 0.07 51 1010.2
20260508195236 60 270 0.9 2.6 0.00 0.20 0.07 55 1010.3
20260508194216 59 158 1.7 3.5 0.00 0.20 0.07 43 1010.4
20260508193218 60 293 1.7 4.3 0.00 0.20 0.07 41 1010.6
20260508192216 60 248 2.6 4.3 0.00 0.20 0.07 46 1010.7
20260508191216 60 225 5.2 7.8 0.00 0.20 0.07 46 1010.8
20260508190216 60 248 3.5 4.3 0.00 0.20 0.07 43 1011.0
20260508185238 61 315 1.7 2.6 0.00 0.20 0.07 52 1011.2
20260508184216 60 338 0.9 2.6 0.00 0.20 0.07 55 1011.2
20260508183218 60 248 4.3 5.2 0.00 0.20 0.07 46 1011.2
20260508182218 60 0 2.6 4.3 0.00 0.20 0.07 57 1011.2
20260508181216 58 225 2.6 6.1 0.00 0.20 0.07 60 1011.2
20260508180216 58 203 4.3 7.0 0.00 0.20 0.07 56 1011.2
20260508175258 58 293 2.6 4.3 0.00 0.20 0.07 59 1011.4
20260508174216 58 338 1.7 2.6 0.00 0.20 0.07 62 1011.5